Tracking 22836 objects as of 18-Apr-2021
HD Live streaming from Space Station
objects crossing your sky now

DELTA 1 DEB

Track DELTA 1 DEB now!
10-day predictions


NORAD ID: 42586
Int'l Code: 1973-086JA
Perigee: 1,509.3 km
Apogee: 1,558.6 km
Inclination: 102.3 °
Period: 116.6 minutes
Semi major axis: 7904 km
RCS: Unknown
Launch date: November 6, 1973
Source: United States (US)
Launch site: AIR FORCE WESTERN TEST RANGE (AFWTR)

Note: This is SATELLITE DEBRIS
aabbcc
Your satellite tracking list
Your tracking list is empty




NASA's NSSDC Master Catalog

Two Line Element Set (TLE):
1 42586U 73086JA  21107.20708286 -.00000014  00000-0  25372-3 0  9991
2 42586 102.3258  89.6861 0031220 337.8255  35.7943 12.35244771333867
Source of the keplerian elements: AFSPC